DW2363 Weather Reports


Display with metric or nautical units.
time (UTC)temp
F
wind
direction
speed
MPH
gust
MPH
rain 1hr
in
rain 24hr
in
rain mn
in
humidity
%
barometer
mb
20260505095642 49 189 1.0 3.0 0.00 0.00 0.00 89 1012.4
20260505095142 49 190 1.0 3.0 0.00 0.00 0.00 88 1012.5
20260505094642 49 190 2.0 9.0 0.00 0.00 0.00 88 1012.5
20260505094143 49 190 3.0 9.0 0.00 0.00 0.00 87 1012.6
20260505093644 49 190 5.0 9.0 0.00 0.00 0.00 86 1012.5
20260505093147 49 240 6.0 12.0 0.00 0.00 0.00 86 1012.7
20260505093143 49 227 6.0 9.0 0.00 0.00 0.00 86 1012.6
20260505092145 50 243 9.0 12.0 0.00 0.00 0.00 85 1012.9
20260505092140 50 209 7.0 12.0 0.00 0.00 0.00 85 1012.8
20260505091747 49 254 10.0 12.0 0.00 0.00 0.00 85 1013.0
20260505090640 49 254 10.0 13.0 0.00 0.00 0.00 86 1013.0
20260505090140 49 261 10.0 14.0 0.00 0.00 0.00 87 1013.0
20260505085640 49 265 10.0 14.0 0.00 0.00 0.00 88 1013.0
20260505085140 49 263 8.0 12.0 0.00 0.00 0.00 90 1013.0
20260505084640 49 269 7.0 11.0 0.00 0.00 0.00 91 1013.1
20260505084140 49 290 6.0 9.0 0.00 0.00 0.00 91 1013.2
20260505083640 49 295 8.0 11.0 0.00 0.00 0.00 90 1013.4
20260505083138 49 307 9.0 11.0 0.00 0.00 0.00 90 1013.4
20260505082642 49 302 6.0 10.0 0.00 0.00 0.00 90 1013.4
20260505082638 49 302 8.0 11.0 0.00 0.00 0.00 89 1013.2
20260505081638 49 294 6.0 9.0 0.00 0.00 0.00 91 1013.4
20260505081137 49 304 6.0 9.0 0.00 0.00 0.00 91 1013.4
20260505080637 49 289 7.0 12.0 0.00 0.00 0.00 91 1013.5
20260505080138 49 283 8.0 12.0 0.00 0.00 0.00 92 1013.5
20260505075642 49 277 7.0 10.0 0.00 0.00 0.00 91 1013.6
20260505075638 49 295 8.0 11.0 0.00 0.00 0.00 91 1013.5
20260505074641 49 240 7.0 11.0 0.00 0.00 0.00 90 1013.6
20260505074637 49 229 7.0 11.0 0.00 0.00 0.00 90 1013.6
20260505073637 49 246 7.0 11.0 0.00 0.00 0.00 91 1013.7
20260505073138 49 257 8.0 11.0 0.00 0.00 0.00 92 1013.7
20260505072638 49 244 8.0 11.0 0.00 0.00 0.00 92 1013.7
20260505072136 49 259 8.0 13.0 0.00 0.00 0.00 93 1013.7
20260505071636 49 350 8.0 13.0 0.00 0.00 0.00 93 1013.7
20260505071135 49 300 8.0 14.0 0.00 0.00 0.00 94 1013.7
20260505070635 49 251 9.0 14.0 0.00 0.00 0.00 94 1013.7
20260505070140 49 246 11.0 15.0 0.00 0.00 0.00 94 1013.6
20260505070136 49 252 10.0 15.0 0.00 0.00 0.00 94 1013.6
20260505065135 49 254 11.0 15.0 0.00 0.00 0.00 94 1013.5
20260505064745 49 263 9.0 12.0 0.00 0.00 0.00 94 1013.7
20260505064635 49 252 11.0 15.0 0.00 0.00 0.00 94 1013.6
20260505064140 49 263 10.0 13.0 0.00 0.00 0.00 94 1013.7
20260505064135 49 243 10.0 15.0 0.00 0.00 0.00 94 1013.6
20260505062635 49 328 8.0 12.0 0.00 0.00 0.00 93 1013.7
20260505062136 49 292 5.0 11.0 0.00 0.00 0.00 93 1013.8
20260505061636 50 276 4.0 7.0 0.00 0.00 0.00 93 1013.8
20260505061135 50 279 4.0 8.0 0.00 0.00 0.00 92 1013.8
20260505060633 50 273 3.0 8.0 0.00 0.00 0.00 92 1013.8
20260505060133 50 266 3.0 6.0 0.00 0.00 0.00 91 1013.8
20260505055633 50 319 2.0 6.0 0.00 0.00 0.00 91 1013.8
20260505055133 50 286 2.0 6.0 0.00 0.00 0.00 90 1013.8
20260505054633 50 288 1.0 4.0 0.00 0.00 0.00 90 1013.8
20260505054131 50 255 2.0 6.0 0.00 0.00 0.00 89 1013.7
20260505053633 50 230 3.0 6.0 0.00 0.00 0.00 88 1013.7
20260505053131 50 266 2.0 6.0 0.00 0.00 0.00 88 1013.8
20260505052631 50 274 2.0 6.0 0.00 0.00 0.00 90 1013.9
20260505052131 50 286 2.0 4.0 0.00 0.00 0.00 90 1013.9
20260505051632 50 275 1.0 4.0 0.00 0.00 0.00 89 1013.9
20260505051131 50 275 1.0 4.0 0.00 0.00 0.00 89 1013.9
20260505050631 50 275 1.0 7.0 0.00 0.00 0.00 90 1013.9
20260505050130 50 275 1.0 7.0 0.00 0.00 0.00 91 1013.8
20260505041629 50 273 5.0 9.0 0.00 0.00 0.00 92 1014.0
20260505041127 50 257 3.0 7.0 0.00 0.00 0.00 92 1014.0
20260505040627 50 261 3.0 6.0 0.00 0.00 0.00 92 1014.0
20260505040132 50 312 3.0 5.0 0.00 0.00 0.00 93 1014.1
20260505040127 50 279 3.0 6.0 0.00 0.00 0.00 92 1014.0
20260505035734 50 300 3.0 5.0 0.00 0.00 0.00 93 1014.0
20260505034627 50 297 2.0 5.0 0.00 0.00 0.00 94 1014.0
20260505034127 50 238 3.0 5.0 0.00 0.00 0.00 94 1013.9
20260505033627 50 238 3.0 6.0 0.00 0.00 0.00 94 1013.9
20260505033127 50 257 3.0 6.0 0.00 0.00 0.00 95 1013.9
20260505032627 50 247 2.0 4.0 0.00 0.00 0.00 95 1013.9
20260505032125 51 186 2.0 4.0 0.00 0.00 0.00 95 1013.8
20260505031625 51 186 2.0 8.0 0.00 0.00 0.00 95 1013.7
20260505031126 51 186 3.0 8.0 0.00 0.00 0.00 94 1013.7
20260505030625 51 178 5.0 8.0 0.00 0.00 0.00 94 1013.5
20260505030125 51 167 6.0 9.0 0.00 0.00 0.00 94 1013.4
20260505025631 51 188 6.0 9.0 0.00 0.00 0.00 93 1013.4
20260505025625 51 195 6.0 9.0 0.00 0.00 0.00 93 1013.4
20260505024625 50 188 7.0 9.0 0.00 0.00 0.00 93 1013.5
20260505024122 50 227 7.0 9.0 0.00 0.00 0.00 94 1013.5
20260505023622 50 221 7.0 12.0 0.00 0.00 0.00 94 1013.5
20260505023121 50 211 7.0 12.0 0.00 0.00 0.00 94 1013.5
20260505022621 50 199 8.0 12.0 0.00 0.00 0.00 95 1013.4
20260505022125 50 207 9.0 14.0 0.00 0.00 0.00 95 1013.4
20260505022120 50 210 10.0 14.0 0.00 0.00 0.00 95 1013.4
20260505021125 50 188 8.0 12.0 0.00 0.00 0.00 96 1013.5
20260505021121 50 205 8.0 12.0 0.00 0.00 0.00 96 1013.5
20260505020121 50 198 9.0 12.0 0.00 0.00 0.00 96 1013.5
20260505015621 50 193 10.0 17.0 0.00 0.00 0.00 96 1013.5
20260505015120 50 192 11.0 17.0 0.00 0.00 0.00 96 1013.4
20260505014621 50 194 12.0 18.0 0.00 0.00 0.00 96 1013.4
20260505014120 50 211 12.0 18.0 0.00 0.00 0.00 95 1013.5
20260505013620 50 195 12.0 16.0 0.00 0.00 0.00 95 1013.5
20260505013121 50 202 12.0 16.0 0.00 0.00 0.00 95 1013.6
20260505012624 51 202 10.0 15.0 0.00 0.00 0.00 95 1013.7
20260505012620 50 190 11.0 14.0 0.00 0.00 0.00 95 1013.6
20260505011728 51 182 14.0 19.0 0.00 0.00 0.00 94 1013.8
20260505011621 51 200 11.0 15.0 0.00 0.00 0.00 95 1013.7
20260505011124 51 186 11.0 19.0 0.00 0.00 0.00 94 1013.7
20260505011120 51 206 13.0 19.0 0.00 0.00 0.00 94 1013.8
20260505005619 51 215 15.0 19.0 0.00 0.00 0.00 95 1013.7
20260505005119 51 211 16.0 21.0 0.00 0.00 0.00 95 1013.8
20260505004619 51 207 16.0 21.0 0.00 0.00 0.00 95 1013.8
20260505004118 51 202 14.0 21.0 0.00 0.00 0.00 95 1013.8
20260505003619 51 202 13.0 21.0 0.00 0.00 0.00 95 1013.8
20260505003118 51 184 13.0 21.0 0.00 0.00 0.00 94 1013.8
20260505002623 51 200 13.0 20.0 0.00 0.00 0.00 94 1013.8
20260505002619 52 188 13.0 20.0 0.00 0.00 0.00 94 1013.8
20260505001618 52 173 14.0 20.0 0.00 0.00 0.00 94 1013.8
20260505001118 52 204 14.0 20.0 0.00 0.00 0.00 94 1013.8
20260505000618 52 197 14.0 18.0 0.00 0.00 0.00 93 1013.8
20260505000118 52 196 13.0 18.0 0.00 0.00 0.00 94 1013.8
20260504235619 53 180 13.0 18.0 0.00 0.00 0.00 94 1013.7
20260504235119 53 213 13.0 22.0 0.00 0.00 0.00 95 1013.7
20260504234618 52 203 14.0 22.0 0.00 0.00 0.00 94 1013.7
20260504234116 52 198 16.0 22.0 0.00 0.00 0.00 94 1013.7
20260504233616 52 201 16.0 22.0 0.00 0.00 0.00 94 1013.6
20260504233116 52 187 16.0 22.0 0.00 0.00 0.00 94 1013.6
20260504232616 52 196 15.0 22.0 0.00 0.00 0.00 94 1013.7
20260504232116 52 209 15.0 22.0 0.00 0.00 0.00 95 1013.7
20260504231616 51 188 14.0 22.0 0.00 0.00 0.00 95 1013.7
20260504231116 51 192 14.0 21.0 0.00 0.00 0.00 95 1013.8
20260504230616 51 195 14.0 21.0 0.00 0.00 0.00 94 1013.9
20260504230116 51 207 15.0 22.0 0.00 0.00 0.00 94 1013.9
20260504225616 51 196 18.0 26.0 0.00 0.00 0.00 94 1014.0
20260504225115 52 190 18.0 27.0 0.00 0.00 0.00 93 1013.9
20260504224616 52 184 17.0 28.0 0.00 0.00 0.00 92 1013.9
20260504224116 53 228 17.0 28.0 0.00 0.00 0.00 90 1014.0
20260504223616 52 194 18.0 27.0 0.00 0.00 0.00 90 1014.1
20260504223117 53 178 18.0 25.0 0.00 0.00 0.00 89 1014.1
20260504222614 53 200 18.0 29.0 0.00 0.00 0.00 91 1014.1
20260504222114 52 180 19.0 29.0 0.00 0.00 0.00 91 1014.1
20260504221616 53 198 17.0 29.0 0.00 0.00 0.00 89 1014.3
20260504221612 53 182 18.0 29.0 0.00 0.00 0.00 90 1014.0
20260504220611 53 198 17.0 29.0 0.00 0.00 0.00 91 1014.4
20260504220111 53 192 19.0 31.0 0.00 0.00 0.00 91 1014.5
20260504215612 52 192 21.0 37.0 0.00 0.00 0.00 90 1014.5
20260504215111 52 201 21.0 37.0 0.00 0.00 0.00 90 1014.4
20260504214612 52 161 21.0 31.0 0.00 0.00 0.00 90 1014.5
20260504214112 53 188 21.0 33.0 0.00 0.00 0.00 88 1014.5
20260504213615 54 165 21.0 31.0 0.00 0.00 0.00 87 1014.6
20260504213611 53 171 20.0 33.0 0.00 0.00 0.00 87 1014.5
20260504212611 53 177 21.0 32.0 0.00 0.00 0.00 88 1014.5
20260504212218 53 180 22.0 31.0 0.00 0.00 0.00 84 1014.5
20260504212111 53 171 21.0 32.0 0.00 0.00 0.00 87 1014.5
20260504211615 53 189 22.0 33.0 0.00 0.00 0.00 83 1014.6
20260504211611 53 182 22.0 33.0 0.00 0.00 0.00 85 1014.4
20260504210114 53 175 23.0 34.0 0.00 0.00 0.00 83 1014.5
20260504210108 53 172 22.0 31.0 0.00 0.00 0.00 83 1014.5
20260504205108 53 175 22.0 35.0 0.00 0.00 0.00 82 1014.5
20260504204608 53 178 21.0 35.0 0.00 0.00 0.00 82 1014.5
20260504204108 54 161 21.0 32.0 0.00 0.00 0.00 82 1014.4
20260504203716 53 198 21.0 32.0 0.00 0.00 0.00 82 1014.5
20260504203613 53 188 21.0 30.0 0.00 0.00 0.00 83 1014.4
20260504203608 53 182 22.0 32.0 0.00 0.00 0.00 82 1014.6
20260504202106 53 173 22.0 32.0 0.00 0.00 0.00 81 1014.4
20260504201606 54 177 21.0 31.0 0.00 0.00 0.00 79 1014.4
20260504201106 54 183 19.0 31.0 0.00 0.00 0.00 79 1014.4
20260504200612 55 161 17.0 28.0 0.00 0.00 0.00 78 1014.4
20260504200606 55 176 19.0 28.0 0.00 0.00 0.00 77 1014.5
20260504195605 55 184 16.0 24.0 0.00 0.00 0.00 79 1014.6
20260504195106 55 162 16.0 25.0 0.00 0.00 0.00 77 1014.6
20260504194603 55 190 15.0 25.0 0.00 0.00 0.00 76 1014.6
20260504194103 55 192 16.0 23.0 0.00 0.00 0.00 78 1014.6
20260504193602 54 181 16.0 24.0 0.00 0.00 0.00 80 1014.8
20260504193101 54 175 15.0 24.0 0.00 0.00 0.00 80 1014.8
20260504192602 53 203 15.0 23.0 0.00 0.00 0.00 79 1014.6
20260504192101 54 149 15.0 23.0 0.00 0.00 0.00 80 1014.8
20260504191602 54 165 14.0 23.0 0.00 0.00 0.00 81 1014.9
20260504191102 54 194 12.0 23.0 0.00 0.00 0.00 79 1014.8
20260504190601 55 188 10.0 19.0 0.00 0.00 0.00 82 1015.0
20260504185601 55 207 10.0 16.0 0.00 0.00 0.00 81 1014.9
20260504185102 54 176 9.0 16.0 0.00 0.00 0.00 84 1014.9
20260504184601 54 183 10.0 16.0 0.00 0.00 0.00 83 1014.9
20260504184102 54 191 11.0 16.0 0.00 0.00 0.00 84 1014.9
20260504183602 54 176 10.0 16.0 0.00 0.00 0.00 83 1014.9
20260504183101 54 188 10.0 16.0 0.00 0.00 0.00 82 1014.8
20260504182601 55 190 9.0 16.0 0.00 0.00 0.00 81 1014.9
20260504182102 55 169 8.0 15.0 0.00 0.00 0.00 83 1014.9
20260504181606 55 203 7.0 12.0 0.00 0.00 0.00 85 1014.9
20260504181602 55 195 7.0 14.0 0.00 0.00 0.00 83 1015.0
20260504180601 53 183 7.0 12.0 0.00 0.00 0.00 85 1015.0
20260504175602 53 207 9.0 13.0 0.00 0.00 0.00 86 1014.9
20260504175102 53 190 9.0 14.0 0.00 0.00 0.00 87 1014.9
20260504174602 53 190 9.0 15.0 0.00 0.00 0.00 87 1014.9
20260504174105 52 180 10.0 16.0 0.00 0.00 0.00 88 1014.8
20260504174101 52 175 9.0 15.0 0.00 0.00 0.00 86 1014.8
20260504173106 52 175 9.0 14.0 0.00 0.00 0.00 86 1014.8
20260504173101 52 202 10.0 16.0 0.00 0.00 0.00 87 1014.8
20260504172105 54 186 6.0 13.0 0.00 0.00 0.00 85 1014.8
20260504172101 53 173 8.0 13.0 0.00 0.00 0.00 85 1014.5
20260504171708 54 205 4.0 12.0 0.00 0.00 0.00 85 1014.6
20260504170601 53 180 5.0 11.0 0.00 0.00 0.00 84 1014.5
20260504151057 51 136 0.0 0.0 0.00 0.00 0.00 89 1014.1
20260504150558 51 136 0.0 0.0 0.00 0.00 0.00 89 1014.0
20260504141058 49 136 1.0 3.0 0.00 0.00 0.00 89 1013.9
20260504141054 49 128 1.0 3.0 0.00 0.00 0.00 90 1013.7
20260504130552 49 206 0.0 2.0 0.00 0.00 0.00 89 1013.4
20260504110542 50 270 0.0 2.0 0.00 0.00 0.00 88 1013.4
20260504110538 50 270 0.0 2.0 0.00 0.00 0.00 88 1013.4
20260504100534 50 196 1.0 3.0 0.00 0.00 0.00 84 1013.0